Previsão horária em Juzhno-Sahalinsk

Hoje, 14 Junho, Segunda-feira

Tempo Temperatura Precipitação Vento Pressão Humidade
00:00 +9°C° 0 mm 2 m/s 753 mmHg 86%
01:00 +9°C° 0 mm 2 m/s 753 mmHg 85%
02:00 +10°C° 0 mm 2 m/s 753 mmHg 83%
03:00 +10°C° 0 mm 2 m/s 753 mmHg 81%
04:00 +10°C° 0 mm 2 m/s 753 mmHg 79%
05:00 +12°C° 0 mm 2 m/s 753 mmHg 77%
06:00 +12°C° 0 mm 2 m/s 754 mmHg 75%
07:00 +13°C° 0 mm 2 m/s 754 mmHg 73%
08:00 +14°C° 0 mm 3 m/s 754 mmHg 70%
09:00 +16°C° 0 mm 2 m/s 754 mmHg 65%
10:00 +16°C° 0 mm 3 m/s 754 mmHg 66%
11:00 +16°C° 0 mm 3 m/s 754 mmHg 67%
12:00 +16°C° 0 mm 3 m/s 754 mmHg 67%
13:00 +16°C° 0 mm 3 m/s 754 mmHg 69%
14:00 +16°C° 0 mm 3 m/s 754 mmHg 71%
15:00 +14°C° 0 mm 3 m/s 754 mmHg 73%
16:00 +13°C° 0 mm 3 m/s 755 mmHg 76%
17:00 +12°C° 0 mm 3 m/s 755 mmHg 79%
18:00 +12°C° 0 mm 3 m/s 755 mmHg 82%
19:00 +10°C° 0 mm 2 m/s 755 mmHg 86%
20:00 +9°C° 0 mm 2 m/s 756 mmHg 90%
21:00 +8°C° 0 mm 2 m/s 756 mmHg 95%
22:00 +8°C° 0 mm 2 m/s 756 mmHg 94%
23:00 +8°C° 0 mm 2 m/s 756 mmHg 93%

Amanhã, 15 Junho, Terça-feira

Tempo Temperatura Precipitação Vento Pressão Humidade
00:00 +9°C° 0 mm 2 m/s 756 mmHg 92%
01:00 +9°C° 0 mm 2 m/s 756 mmHg 92%
02:00 +9°C° 0 mm 2 m/s 756 mmHg 91%
03:00 +9°C° 0 mm 2 m/s 756 mmHg 90%
04:00 +10°C° 0 mm 3 m/s 756 mmHg 89%
05:00 +10°C° 0 mm 3 m/s 756 mmHg 87%
06:00 +11°C° 0 mm 3 m/s 757 mmHg 86%
07:00 +11°C° 0 mm 4 m/s 757 mmHg 83%
08:00 +12°C° 0 mm 4 m/s 757 mmHg 80%
09:00 +13°C° 0 mm 4 m/s 757 mmHg 78%
10:00 +13°C° 0 mm 4 m/s 757 mmHg 74%
11:00 +14°C° 0 mm 4 m/s 757 mmHg 71%
12:00 +15°C° 0 mm 4 m/s 757 mmHg 68%
13:00 +15°C° 0 mm 4 m/s 757 mmHg 68%
14:00 +15°C° 0 mm 4 m/s 757 mmHg 69%
15:00 +15°C° 0 mm 4 m/s 757 mmHg 70%
16:00 +13°C° 0 mm 4 m/s 757 mmHg 73%
17:00 +12°C° 0 mm 4 m/s 757 mmHg 77%
18:00 +11°C° 0 mm 3 m/s 757 mmHg 81%
19:00 +10°C° 0 mm 3 m/s 757 mmHg 86%
20:00 +9°C° 0 mm 3 m/s 757 mmHg 91%
21:00 +7°C° 0 mm 3 m/s 758 mmHg 96%
22:00 +7°C° 0 mm 2 m/s 757 mmHg 96%
23:00 +7°C° 0 mm 2 m/s 757 mmHg 96%

Depois de amanhã, 16 Junho, Quarta-feira

Tempo Temperatura Precipitação Vento Pressão Humidade
00:00 +7°C° 0 mm 2 m/s 757 mmHg 96%
01:00 +7°C° 0 mm 2 m/s 757 mmHg 95%
02:00 +7°C° 0 mm 2 m/s 757 mmHg 94%
03:00 +7°C° 0 mm 2 m/s 757 mmHg 93%
04:00 +8°C° 0 mm 2 m/s 757 mmHg 91%
05:00 +8°C° 0 mm 2 m/s 757 mmHg 89%
06:00 +9°C° 0 mm 2 m/s 757 mmHg 86%
07:00 +10°C° 0 mm 3 m/s 757 mmHg 82%
08:00 +12°C° 0 mm 3 m/s 757 mmHg 77%
09:00 +13°C° 0 mm 3 m/s 757 mmHg 73%
10:00 +14°C° 0 mm 3 m/s 757 mmHg 70%
11:00 +16°C° 0 mm 3 m/s 756 mmHg 68%
12:00 +17°C° 0 mm 3 m/s 756 mmHg 66%
13:00 +17°C° 0 mm 3 m/s 756 mmHg 67%
14:00 +17°C° 0 mm 3 m/s 756 mmHg 68%
15:00 +17°C° 0 mm 3 m/s 756 mmHg 69%
16:00 +16°C° 0 mm 2 m/s 756 mmHg 74%
17:00 +15°C° 0 mm 2 m/s 756 mmHg 80%
18:00 +14°C° 0 mm 2 m/s 756 mmHg 85%
19:00 +12°C° 0 mm 2 m/s 756 mmHg 89%
20:00 +10°C° 0 mm 2 m/s 756 mmHg 93%
21:00 +8°C° 0 mm 2 m/s 756 mmHg 97%
22:00 +8°C° 0 mm 2 m/s 756 mmHg 97%
23:00 +9°C° 0 mm 1 m/s 756 mmHg 97%

17 Junho, Quinta-feira

Tempo Temperatura Precipitação Vento Pressão Humidade
00:00 +9°C° 0 mm 1 m/s 756 mmHg 97%
01:00 +9°C° 0 mm 1 m/s 755 mmHg 97%
02:00 +8°C° 0 mm 0 m/s 755 mmHg 96%
03:00 +9°C° 0 mm 0 m/s 755 mmHg 96%
04:00 +10°C° 0 mm 0 m/s 755 mmHg 93%
05:00 +13°C° 0 mm 1 m/s 755 mmHg 90%
06:00 +15°C° 0 mm 1 m/s 755 mmHg 86%
07:00 +18°C° 0 mm 1 m/s 755 mmHg 79%
08:00 +19°C° 0 mm 2 m/s 755 mmHg 72%
09:00 +21°C° 0 mm 2 m/s 755 mmHg 65%
10:00 +21°C° 0 mm 3 m/s 754 mmHg 64%
11:00 +22°C° 0 mm 3 m/s 754 mmHg 63%
12:00 +22°C° 0 mm 3 m/s 754 mmHg 61%
13:00 +22°C° 0 mm 3 m/s 754 mmHg 62%
14:00 +22°C° 0 mm 3 m/s 754 mmHg 63%
15:00 +22°C° 0 mm 3 m/s 754 mmHg 63%
16:00 +21°C° 0 mm 2 m/s 754 mmHg 70%
17:00 +19°C° 0 mm 2 m/s 754 mmHg 77%
18:00 +18°C° 0 mm 2 m/s 754 mmHg 84%
19:00 +16°C° 0 mm 1 m/s 754 mmHg 88%
20:00 +14°C° 0 mm 1 m/s 754 mmHg 93%
21:00 +12°C° 0 mm 1 m/s 754 mmHg 97%
22:00 +11°C° 0 mm 0 m/s 754 mmHg 97%
23:00 +11°C° 0 mm 0 m/s 754 mmHg 96%

18 Junho, Sexta-feira

Tempo Temperatura Precipitação Vento Pressão Humidade
00:00 +10°C° 0 mm 0 m/s 753 mmHg 96%
01:00 +10°C° 0 mm 0 m/s 753 mmHg 96%
02:00 +11°C° 0 mm 1 m/s 753 mmHg 95%
03:00 +11°C° 0 mm 1 m/s 753 mmHg 95%
04:00 +12°C° 0 mm 1 m/s 753 mmHg 92%
05:00 +13°C° 0 mm 1 m/s 754 mmHg 89%
06:00 +14°C° 0 mm 1 m/s 754 mmHg 86%
07:00 +15°C° 0 mm 2 m/s 754 mmHg 78%
08:00 +17°C° 0 mm 2 m/s 753 mmHg 70%
09:00 +18°C° 0 mm 2 m/s 753 mmHg 61%
10:00 +19°C° 0 mm 3 m/s 753 mmHg 61%
11:00 +19°C° 0 mm 3 m/s 753 mmHg 61%
12:00 +19°C° 0 mm 3 m/s 753 mmHg 60%
13:00 +18°C° 0 mm 3 m/s 753 mmHg 60%
14:00 +18°C° 0 mm 3 m/s 753 mmHg 60%
15:00 +17°C° 0 mm 3 m/s 752 mmHg 60%
16:00 +16°C° 0 mm 3 m/s 752 mmHg 65%
17:00 +15°C° 0 mm 2 m/s 752 mmHg 70%
18:00 +14°C° 0 mm 2 m/s 752 mmHg 75%
19:00 +13°C° 0 mm 2 m/s 753 mmHg 81%
20:00 +10°C° 0 mm 3 m/s 753 mmHg 87%
21:00 +9°C° 0 mm 3 m/s 753 mmHg 93%
22:00 +9°C° 0 mm 3 m/s 753 mmHg 94%
23:00 +8°C° 0 mm 4 m/s 752 mmHg 94%

19 Junho, Sábado

Tempo Temperatura Precipitação Vento Pressão Humidade
00:00 +8°C° 0 mm 4 m/s 752 mmHg 95%
01:00 +8°C° 0 mm 4 m/s 752 mmHg 94%
02:00 +7°C° 0 mm 4 m/s 752 mmHg 93%
03:00 +7°C° 0 mm 5 m/s 752 mmHg 93%
04:00 +8°C° 0 mm 4 m/s 752 mmHg 89%
05:00 +8°C° 0 mm 4 m/s 752 mmHg 84%
06:00 +10°C° 0 mm 4 m/s 752 mmHg 80%
07:00 +10°C° 0 mm 5 m/s 752 mmHg 75%
08:00 +12°C° 0 mm 5 m/s 752 mmHg 70%
09:00 +13°C° 0 mm 6 m/s 752 mmHg 64%
10:00 +13°C° 0 mm 6 m/s 752 mmHg 64%
11:00 +13°C° 0 mm 6 m/s 752 mmHg 63%
12:00 +13°C° 0 mm 6 m/s 752 mmHg 63%
13:00 +13°C° 0 mm 5 m/s 752 mmHg 64%
14:00 +12°C° 0 mm 5 m/s 752 mmHg 66%
15:00 +12°C° 0 mm 5 m/s 752 mmHg 68%
16:00 +10°C° 0 mm 5 m/s 751 mmHg 71%
17:00 +10°C° 0 mm 5 m/s 751 mmHg 73%
18:00 +10°C° 0 mm 5 m/s 751 mmHg 76%
19:00 +9°C° 0 mm 5 m/s 751 mmHg 77%
20:00 +9°C° 0 mm 5 m/s 751 mmHg 78%
21:00 +8°C° 0 mm 5 m/s 752 mmHg 79%
22:00 +8°C° 0.4 mm 4 m/s 751 mmHg 85%
23:00 +7°C° 0.4 mm 4 m/s 751 mmHg 91%
Mostrar mais

Necessitamos do seu Consentimento

A Meteoprog e os seus Fornecedores de Serviços podem armazenar e aceder a dados pessoais como cookies, identificadores do dispositivo ou outras tecnologias semelhantes existentes no seu dispositivo e processar estes dados para personalizar conteúdos e anúncios, assim como funcionalidades nas redes sociais e análise de tráfego.

  • Armazenar e/ou aceder a informações no seu dispositivo

    Os cookies, identificadores do dispositivo ou outras informações podem ser armazenados ou acedidos no seu dispositivo, para os fins acima indicados.

  • Anúncios e conteúdos personalizados, medição de anúncios e conteúdos, dados sobre o público-alvo e desenvolvimento de produtos

    Os anúncios e os conteúdos podem ser personalizados com base num perfil. Podem ser adicionados dados adicionais para uma maior personalização dos anúncios e dos conteúdos. A eficácia dos anúncios e dos conteúdos pode ser medida. Podem ser obtidas informações sobre o público que visualizou os anúncios e os conteúdos. Estes dados podem ser usados para desenvolver ou melhorar sistemas, softwares ou a experiência do utilizador.

Ao clicar em "Eu concordo”, permitirá o uso de cookies, identificadores do dispositivo e web beacons mencionados ou outras tecnologias semelhantes. As configurações do navegador do seu dispositivo podem ser alteradas.

Para certos fins, podem ser invocados interesses legítimos ao invés de consentimento. Pode ler mais informação sobre este assunto na nossa Política de Privacidade e Cookies.